DateTimeUTC,F1_A11,F1_S11,BsB_S11,BsG_S11,BsR_S11,BbsB_S11,BbsG_S11,BbsR_S11,BaB_A11,BaG_A11,BaR_A11,Tu_S11,T_S11,Uu_S11,U_S11,P_S11,T1_A11
2021-05-11T14:00:00Z,00000200,21000000,,,,,,,-000.18,0000.76,0000.07,16.8,23.1,,00.0,0667.7,30.9
2021-05-11T14:01:00Z,00000200,21000000,,,,,,,0000.71,-000.54,-000.09,16.8,23.1,,00.0,0667.7,30.9
2021-05-11T14:02:00Z,00000200,21000000,,,,,,,-000.15,0000.45,0000.14,16.8,23.1,,00.0,0667.7,30.9
2021-05-11T14:03:00Z,00000200,61000000,,,,,,,0004.56,0004.23,0003.16,16.8,23.1,,00.0,0667.7,30.9
2021-05-11T14:04:00Z,00000200,41000000,0000.73,0000.60,0000.35,0000.68,0000.17,0000.08,0006.47,0005.59,0004.79,17.0,23.0,,00.0,0668.5,30.9
2021-05-11T14:05:00Z,00000200,01000000,0001.10,0000.82,0000.45,0000.61,0000.18,0000.13,0005.22,0005.49,0004.20,17.0,23.0,,00.0,0668.6,30.9
2021-05-11T14:06:00Z,00000200,01000000,0001.58,0000.59,0000.59,0000.23,0000.17,-000.18,0005.21,0004.70,0003.76,17.0,23.0,,00.0,0668.6,30.9
2021-05-11T14:07:00Z,00000200,01000000,0001.25,0001.01,0000.54,0000.02,0000.18,0000.32,0006.10,0005.31,0004.71,17.0,23.0,,00.0,0668.6,30.9
2021-05-11T14:08:00Z,00000200,01000000,0001.54,0000.79,0000.32,0000.35,-000.02,0000.05,0007.21,0006.47,0005.32,17.1,22.9,,00.0,0668.6,30.9
2021-05-11T14:09:00Z,00000200,01000000,0001.63,0001.13,0000.42,0000.12,0000.01,0000.39,0006.57,0006.32,0004.53,17.1,23.0,,00.0,0668.6,30.9
2021-05-11T14:10:00Z,00000200,01000000,0001.44,0001.00,0000.69,0000.61,0000.04,0000.21,0006.73,0005.98,0005.01,17.1,22.9,,00.0,0668.6,30.9
2021-05-11T14:11:00Z,00000200,01000000,0001.31,0001.07,0000.19,0000.15,0000.13,0000.12,0004.89,0004.39,0003.57,17.1,23.0,,00.0,0668.7,30.9
2021-05-11T14:12:00Z,00000200,01000000,0000.49,0000.68,0000.65,-000.11,0000.14,0000.28,0004.21,0004.00,0003.44,17.1,23.0,,00.0,0668.7,30.9
2021-05-11T14:13:00Z,00000200,01000000,0001.07,0001.20,0000.36,0000.15,-000.03,0000.16,0006.71,0006.17,0004.56,17.1,23.0,,00.0,0668.7,30.9
2021-05-11T14:14:00Z,00000200,01000000,0001.16,0000.90,0000.50,0000.19,0000.16,0000.13,0005.75,0005.41,0004.58,17.1,23.0,,00.0,0668.7,30.9
2021-05-11T14:15:00Z,00000200,01000000,0001.54,0000.53,0000.56,0000.21,0000.23,0000.14,0005.04,0004.78,0003.84,17.2,23.0,,00.0,0668.7,30.9
2021-05-11T14:16:00Z,00000200,01000000,0000.87,0000.85,0000.26,0000.62,0000.21,0000.01,0005.22,0004.60,0003.47,17.2,23.0,,00.0,0668.7,30.9
2021-05-11T14:17:00Z,00000200,01000000,0001.24,0001.06,0000.53,0000.69,0000.24,0000.52,0007.09,0006.90,0005.62,17.1,23.0,,00.0,0668.7,30.9
2021-05-11T14:18:00Z,00000200,01000000,0000.68,0000.93,0000.49,0000.84,0000.21,0000.37,0007.77,0006.70,0005.63,17.2,23.0,,00.0,0668.7,30.9
2021-05-11T14:19:00Z,00000200,01000000,0000.63,0000.49,0000.47,0000.11,0000.11,-000.13,0004.35,0004.85,0003.72,17.2,23.0,,00.0,0668.7,30.9
2021-05-11T14:20:00Z,00000200,01000000,0000.36,0000.68,0000.44,0000.38,0000.22,0000.07,0003.86,0003.05,0002.61,17.2,23.0,,00.0,0668.7,30.9
2021-05-11T14:21:00Z,00000200,01000000,0001.25,0000.72,0000.12,0000.34,0000.16,0000.13,0004.44,0003.82,0002.85,17.2,23.0,,00.0,0668.7,30.9
2021-05-11T14:22:00Z,00000200,01000000,0000.63,0000.69,0000.33,0000.00,-000.05,0000.32,0002.90,0003.12,0002.36,17.2,23.0,,00.0,0668.7,30.9
2021-05-11T14:23:00Z,00000200,01000000,0000.64,0000.62,0000.43,0000.38,0000.15,-000.04,0002.56,0002.29,0001.88,17.2,23.0,,00.0,0668.7,30.9
2021-05-11T14:24:00Z,00000200,01000000,0001.10,0000.63,0000.50,0000.51,-000.15,0000.19,0003.37,0003.20,0002.63,17.2,23.0,,00.0,0668.7,30.9
2021-05-11T14:25:00Z,00000200,01000000,0001.04,0000.65,0000.15,0000.72,-000.04,0000.07,0002.92,0002.66,0002.00,17.2,23.0,,00.0,0668.7,30.9
2021-05-11T14:26:00Z,00000200,01000000,0000.87,0000.83,0000.33,0000.27,0000.06,-000.04,0003.63,0003.29,0002.52,17.2,23.1,,00.0,0668.7,30.9
2021-05-11T14:27:00Z,00000200,01000000,0000.79,0000.75,0000.30,0000.43,0000.09,0000.18,0002.43,0002.43,0002.28,17.2,23.0,,00.0,0668.7,30.9
2021-05-11T14:28:00Z,00000200,01000000,0000.66,0000.47,0000.23,-000.20,0000.11,-000.01,0003.13,0002.49,0002.16,17.2,23.1,,00.0,0668.7,30.9
2021-05-11T14:29:00Z,00000200,01000000,0000.93,0000.58,0000.26,0000.38,0000.12,0000.34,0002.49,0002.47,0001.97,17.2,23.0,,00.0,0668.8,30.9
2021-05-11T14:30:00Z,00000200,01000000,0000.42,0000.78,0000.27,-000.20,0000.06,0000.27,0002.68,0002.17,0001.58,17.2,23.0,,00.0,0668.8,30.9
2021-05-11T14:31:00Z,00000200,01000000,0001.07,0000.59,0000.39,-000.01,0000.02,0000.35,0003.85,0003.81,0002.88,17.2,23.0,,00.0,0668.8,30.9
2021-05-11T14:32:00Z,00000200,01000000,0001.39,0000.86,0000.21,0000.20,0000.16,0000.31,0004.41,0004.00,0003.27,17.2,23.0,,00.0,0668.8,30.9
2021-05-11T14:33:00Z,00000200,01000000,0000.97,0000.69,0000.65,0000.16,0000.16,0000.35,0004.27,0004.32,0003.17,17.2,23.1,,00.0,0668.8,30.9
2021-05-11T14:34:00Z,00000200,01000000,0001.47,0000.75,0000.21,0000.80,0000.09,0000.12,0004.53,0004.11,0003.27,17.2,23.0,,00.0,0668.8,30.9
2021-05-11T14:35:00Z,00000200,01000000,0001.30,0000.83,0000.19,0000.54,0000.19,-000.30,0003.77,0003.11,0003.03,17.2,23.0,,00.0,0668.8,30.9
2021-05-11T14:36:00Z,00000200,01000000,0000.87,0000.64,0000.17,-000.03,0000.40,-000.02,0003.21,0003.16,0002.16,17.1,23.0,,00.0,0668.8,30.9
2021-05-11T14:37:00Z,00000200,01000000,0000.80,0000.72,0000.30,0001.03,0000.10,-000.03,0002.07,0001.97,0001.84,17.1,23.1,,00.0,0668.8,30.9
2021-05-11T14:38:00Z,00000200,01000000,0000.23,0000.57,0000.22,0000.35,0000.05,-000.03,0002.44,0002.40,0001.61,17.1,23.0,,00.0,0668.8,30.9
2021-05-11T14:39:00Z,00000200,01000000,0001.20,0000.74,0000.55,0000.36,0000.11,0000.38,0004.58,0004.08,0003.32,17.1,23.0,,00.0,0668.8,30.9
2021-05-11T14:40:00Z,00000200,01000000,0000.31,0000.77,0000.32,-000.12,0000.30,0000.10,0005.22,0004.31,0003.70,17.1,23.1,,00.0,0668.8,30.9
2021-05-11T14:41:00Z,00000200,01000000,0001.31,0000.99,0000.52,0000.20,0000.07,0000.29,0005.31,0005.62,0004.23,17.1,23.0,,00.0,0668.8,30.9
2021-05-11T14:42:00Z,00000200,01000000,0001.23,0001.20,0000.61,0000.69,0000.27,0000.03,0006.42,0005.74,0004.69,17.1,23.1,,00.0,0668.8,30.9
2021-05-11T14:43:00Z,00000200,01000000,0001.16,0001.20,0000.76,0000.49,0000.24,0000.31,0007.11,0006.54,0005.44,17.1,23.1,,00.0,0668.8,30.9
2021-05-11T14:44:00Z,00000200,01000000,0001.17,0001.04,0000.44,0000.01,0000.18,0000.21,0006.71,0006.44,0005.02,17.2,23.1,,00.0,0668.8,30.9
2021-05-11T14:45:00Z,00000200,01000000,0001.75,0001.10,0000.65,0000.61,0000.08,0000.45,0007.23,0006.16,0005.23,17.2,23.2,,00.0,0668.8,30.9
2021-05-11T14:46:00Z,00000200,01000000,0001.05,0001.17,0000.94,0000.26,0000.50,0000.44,0006.47,0006.45,0004.98,17.2,23.2,,00.0,0668.9,30.9
2021-05-11T14:47:00Z,00000200,01000000,0001.17,0001.02,0000.51,0000.57,0000.35,0000.07,0006.49,0005.79,0004.63,17.2,23.2,,00.0,0668.8,30.9
2021-05-11T14:48:00Z,00000200,01000000,0001.16,0001.19,0000.32,0000.26,0000.22,0000.28,0005.77,0005.65,0004.54,17.2,23.2,,00.0,0668.8,30.9
2021-05-11T14:49:00Z,00000200,01000000,0001.09,0001.18,0000.62,0000.09,0000.38,0000.33,0006.27,0005.44,0004.53,17.2,23.2,,00.0,0668.9,30.9
2021-05-11T14:50:00Z,00000200,01000000,0001.61,0000.92,0000.71,0000.05,-000.11,0000.30,0005.25,0005.24,0004.12,17.2,23.2,,00.0,0668.8,30.9
2021-05-11T14:51:00Z,00000200,01000000,0001.18,0000.92,0000.62,0000.45,0000.25,0000.09,0005.33,0004.94,0003.77,17.2,23.2,,00.0,0668.8,30.9
2021-05-11T14:52:00Z,00000200,01000000,0001.47,0000.92,0000.54,0000.33,0000.12,0000.25,0005.15,0004.72,0003.73,17.2,23.2,,00.0,0668.8,30.9
2021-05-11T14:53:00Z,00000200,01000000,0001.33,0001.27,0000.55,0000.26,0000.20,0000.11,0004.63,0004.30,0003.66,17.2,23.2,,00.0,0668.9,30.9
2021-05-11T14:54:00Z,00000200,01000000,0000.48,0000.85,0000.57,0000.66,0000.11,0000.25,0004.87,0004.15,0003.77,17.2,23.2,,00.0,0668.9,30.9
2021-05-11T14:55:00Z,00000200,01000000,0001.58,0000.70,0000.73,0000.68,0000.13,0000.17,0004.69,0004.52,0002.99,17.2,23.2,,00.0,0668.8,30.9
2021-05-11T14:56:00Z,00000200,01000000,0000.78,0000.89,0000.50,0000.25,0000.32,0000.17,0004.33,0004.07,0003.57,17.2,23.2,,00.0,0668.9,30.9
2021-05-11T14:57:00Z,00000200,41000000,,,,,,,0001.42,0001.24,0000.82,17.2,23.3,,00.0,0668.9,30.9
2021-05-11T14:58:00Z,00000200,61000000,,,,,,,0000.17,0000.33,0000.52,17.0,23.4,,00.0,0667.9,30.9
2021-05-11T14:59:00Z,00000200,21000000,,,,,,,-000.09,-000.08,-000.15,17.0,23.5,,00.0,0667.9,30.9
